1299974434956,3.85356
1299974494956,3.87567
1299974554956,3.85823
1299974614956,3.89991
1299974674956,3.86466
1299974734956,3.86767
1299974794956,3.87773
1299974854956,3.86606
1299974914956,3.88260
1299974974956,3.87409
1299975034956,3.86029
1299975094956,3.85865
1299975154956,3.85659
1299975214956,3.87675
1299975274956,3.88724
1299975334956,3.90766
1299975394956,3.88806
1299975454956,3.87559
1299975514956,3.87913
1299975574956,3.88507
1299975634956,3.84339
1299975694956,3.85289
1299975754956,3.85632
1299975814956,3.87771
1299975874956,3.88910
1299975934956,3.86382
1299975994956,3.86509
1299976054956,3.92359
1299976114956,3.86243
1299976174956,3.87339
1299976234956,3.85385
1299976294956,3.84428
1299976354956,3.84052
1299976414956,3.87106
1299976474956,3.84427
1299976534956,3.85486
1299976594956,3.86073
1299976654956,3.88025
1299976714956,3.87984
1299976774956,3.82526
1299976834956,3.85681
1299976894956,3.83365
1299976954956,3.84725
1299977014956,3.86581
1299977074956,3.84455
1299977134956,3.84911
1299977194956,3.85113
1299977254956,3.86268
1299977314956,3.88365
1299977374956,3.85569
1299977434956,3.88831
1299977494956,3.88971
1299977554956,3.86654
1299977614956,3.88410
1299977674956,3.87552
1299977734956,3.87072
1299977794956,3.88359
1299977854956,3.86521
1299977914956,3.87959
1299977974956,3.82706
1299978034970,3.85722
1299978094970,3.85508
1299978154970,3.84864
1299978214970,3.84653
1299978274970,3.86070
1299978334970,3.87086
1299978394970,3.85676
1299978454970,3.86318
1299978514970,3.86824
1299978574970,3.84391
1299978634970,3.88316
1299978694970,3.83901
1299978754970,3.85834
1299978814970,3.86654
1299978874970,3.85747
1299978934970,3.84082
1299978994970,3.87428
1299979054970,3.87067
1299979114970,3.85463
1299979174970,3.85392
1299979234970,3.84694
1299979294970,3.83361
1299979354970,3.82556
1299979414970,3.83450
1299979474970,3.83229
1299979534970,3.87937
1299979594970,3.82252
1299979654970,3.87284
1299979714970,3.84443
1299979774970,3.85931
1299979834970,3.84223
1299979894970,3.84020
1299979954970,3.83798
1299980014970,3.88074
1299980074970,3.83703
1299980134970,3.84965
1299980194970,3.82168
1299980254970,3.84612
1299980314970,3.84531
1299980374970,3.84233
1299980434970,3.83055
1299980494970,3.82050
1299980554970,3.83562
1299980614970,3.84128
1299980674970,3.85213
1299980734970,3.85916
1299980794970,3.88563
1299980854970,3.90062
1299980914970,3.86095
1299980974970,3.89483
1299981034970,3.86816
1299981094970,3.86151
1299981154970,3.86448
1299981214970,3.83748
1299981274970,3.82151
1299981334970,3.87888
1299981394970,3.84704
1299981454970,3.82414
1299981514970,3.84212
1299981574970,3.82442
1299981634984,3.82401
1299981694984,3.86491
1299981754984,3.83580
1299981814984,3.81949
1299981874984,3.83439
1299981934984,3.84066
1299981994984,3.81609
1299982054984,3.85543
1299982114984,3.84173
1299982174984,3.83837
1299982234984,3.84909
1299982294984,3.85973
1299982354984,3.87142
1299982414984,3.87269
1299982474984,3.87369
1299982534984,3.89027
1299982594984,3.87758
1299982654984,3.86636
1299982714984,3.88548
1299982774984,3.86316
1299982834984,3.89070
1299982894984,3.87654
1299982954984,3.88427
1299983014984,3.87808
1299983074984,3.85966
1299983134984,3.85639
1299983194984,3.86472
1299983254984,3.83403
1299983314984,3.85501
1299983374984,3.86838
1299983434984,3.86775
1299983494984,3.85432
1299983554984,3.88860
1299983614984,3.87859
1299983674984,3.91407
1299983734984,3.91908
1299983794984,3.87813
1299983854984,3.86107
1299983914984,3.85744
1299983974984,3.87943
1299984034984,3.88759
1299984094984,3.88716
1299984154984,3.86889
1299984214984,3.87967
1299984274984,3.88560
1299984334984,3.87456
1299984394984,3.88500
1299984454984,3.88302
1299984514984,3.87069
1299984574984,3.86050
1299984634984,3.86721
1299984694984,3.90798
1299984754984,3.90235
1299984814984,3.89727
1299984874984,3.87087
1299984934984,3.89261
1299984994984,3.86106
1299985054984,3.85776
1299985114984,3.91470
1299985174984,3.86451
1299985234998,3.87075
1299985294998,3.86293
1299985354998,3.84679
1299985414998,3.85620
1299985474998,3.85003
1299985534998,3.83789
1299985594998,3.89192
1299985654998,3.86413
1299985714998,3.85009
1299985774998,3.89846
1299985834998,3.86832
1299985894998,3.90120
1299985954998,3.88435
1299986014998,3.95007
1299986074998,3.86200
1299986134998,3.89383
1299986194998,3.87820
1299986254998,3.85466
1299986314998,3.87009
1299986374998,3.87852
1299986434998,3.86801
1299986494998,3.87887
1299986554998,3.86949
1299986614998,3.86814
1299986674998,3.87361
1299986734998,3.86018
1299986794998,3.86037
1299986854998,3.87584
1299986914998,3.86752
1299986974998,3.88477
1299987034998,3.91130
1299987094998,3.89748
1299987154998,3.88655
1299987214998,3.87993
1299987274998,3.90517
1299987334998,3.91419
1299987394998,3.88737
1299987454998,3.90544
1299987514998,3.91121
1299987574998,3.87603
1299987634998,3.85116
1299987694998,3.85727
1299987754998,3.86370
1299987814998,3.86985
1299987874998,3.86532
1299987934998,3.90986
1299987994998,3.84944
1299988054998,3.85267
1299988114998,3.87667
1299988174998,3.87549
1299988234998,3.88585
1299988294998,3.89499
1299988354998,3.85056
1299988414998,3.87260
1299988474998,3.83533
1299988534998,3.86939
1299988594998,3.87042
1299988654998,3.85442
1299988714998,3.87888
1299988774998,3.89537
1299988825012,3.85138
1299988885012,3.86786
1299988945012,3.87059
1299989005012,3.85931
1299989065012,3.83928
1299989125012,3.85102
1299989185012,3.86380
1299989245012,3.84392
1299989305012,3.88299
1299989365012,3.85627
1299989425012,3.85515
1299989485012,3.87820
1299989545012,3.88128
1299989605012,3.86074
1299989665012,3.83050
1299989725012,3.86037
1299989785012,3.86406
1299989845012,3.88101
1299989905012,3.82394
1299989965012,3.87999
1299990025012,3.87437
1299990085012,3.82063
1299990145012,3.85437
1299990205012,3.85331
1299990265012,3.85102
1299990325012,3.85382
1299990385012,3.83769
1299990445012,3.86871
1299990505012,3.89314
1299990565012,3.87263
1299990625012,3.87712
1299990685012,3.87467
1299990745012,3.85195
1299990805012,3.90769
1299990865012,3.85615
1299990925012,3.86023
1299990985012,3.88613
1299991045012,3.86534
1299991105012,3.87496
1299991165012,3.85878
1299991225012,3.85895
1299991285012,3.85340
1299991345012,3.90923
1299991405012,3.89469
1299991465012,3.87761
1299991525012,3.84281
1299991585012,3.89320
1299991645012,3.89175
1299991705012,3.90095
1299991765012,3.88387
1299991825012,3.89203
1299991885012,3.89390
1299991945012,3.88172
1299992005012,3.91635
1299992065012,3.90834
1299992125012,3.87525
1299992185012,3.86768
1299992245012,3.88054
1299992305012,3.89498
1299992365012,3.90955
1299992425026,3.89948
1299992485026,3.87624
1299992545026,3.88958
1299992605026,3.89019
1299992665026,3.89379
1299992725026,3.87732
1299992785026,3.85739
1299992845026,3.87678
1299992905026,3.86935
1299992965026,3.88096
1299993025026,3.86170
1299993085026,3.87814
1299993145026,3.88988
1299993205026,3.90827
1299993265026,3.85139
1299993325026,3.87209
1299993385026,3.87290
1299993445026,3.87821
1299993505026,3.93442
1299993565026,3.87543
1299993625026,3.85384
1299993685026,3.81446
1299993745026,3.84759
1299993805026,3.87719
1299993865026,3.85760
1299993925026,3.85034
1299993985026,3.85964
1299994045026,3.88688
1299994105026,3.90682
1299994165026,3.86357
1299994225026,3.85182
1299994285026,3.87071
1299994345026,3.88402
1299994405026,3.88289
1299994465026,3.87690
1299994525026,3.87318
1299994585026,3.89603
1299994645026,3.92942
1299994705026,3.89842
1299994765026,3.90946
1299994825026,3.90367
1299994885026,3.88348
1299994945026,3.93262
1299995005026,3.86388
1299995065026,3.93341
1299995125026,3.88784
1299995185026,3.90561
1299995245026,3.90280
1299995305026,3.88317
1299995365026,3.88172
1299995425026,3.88859
1299995485026,3.87263
1299995545026,3.92809
1299995605026,3.88685
1299995665026,3.91554
1299995725026,3.89101
1299995785026,3.90416
1299995845026,3.91697
1299995905026,3.87275
1299995965026,3.96350
1299996025039,3.90749
1299996085039,3.91247
1299996145039,3.89274
1299996205039,3.92147
1299996265039,3.89808
1299996325039,3.88834
1299996385039,3.90729
1299996445039,3.87892
1299996505039,3.85353
1299996565039,3.90147
1299996625039,3.87507
1299996685039,3.90220
1299996745039,3.87722
1299996805039,3.89846
1299996865039,3.86431
1299996925039,3.87185
1299996985039,3.88894
1299997045039,3.85932
1299997105039,3.85711
1299997165039,3.89213
1299997225039,3.89565
1299997285039,3.89829
1299997345039,3.90907
1299997405039,3.91031
1299997465039,3.89333
1299997525039,3.92100
1299997585039,3.87654
1299997645039,3.87600
1299997705039,3.88809
1299997765039,3.88171
1299997825039,3.85920
1299997885039,3.90291
1299997945039,3.88257
1299998005039,3.90293
1299998065039,3.90427
1299998125039,3.90228
1299998185039,3.89881
1299998245039,3.90304
1299998305039,3.90231
1299998365039,3.91342
1299998425039,3.88720
1299998485039,3.86627
1299998545039,3.86638
1299998605039,3.87114
1300010185067,3.83235
1300010245067,3.77476
1300010305067,3.78997
1300010365067,3.80237
1300010425080,3.79365
1300010485080,3.80976
1300010545080,3.82559
1300010605080,3.82957
1300010665080,3.78920
1300010725080,3.80577
1300010785080,3.81297
1300010845080,3.76793
1300010905080,3.78845
1300010965080,3.80764
1300011025080,3.79242
1300011085080,3.81074
1300011145080,3.80617
1300011205080,3.79271
1300011265080,3.80022
1300011325080,3.79572
1300011385080,3.78038
1300011445080,3.80313
1300011505080,3.78971
1300011565080,3.80957
1300011625080,3.75978
1300011685080,3.80633
1300011745080,3.78089
1300011805080,3.79361
1300011865080,3.77212
1300011925080,3.77189
1300011985080,3.79512
1300012045080,3.78599
1300012105080,3.78133
1300012165080,3.78051
1300012225080,3.78902
1300012285080,3.74978
1300012345080,3.79623
1300012405080,3.79597
1300012465080,3.79525
1300012525080,3.77950
1300012585080,3.78568
1300012645080,3.78724
1300012705080,3.77729
1300012765080,3.77919
1300012825080,3.83116
1300012885080,3.79009
1300012945080,3.77037
1300013005080,3.78985
1300013065080,3.78630
1300013125080,3.79298
1300013185080,3.78789
1300013245080,3.76503
1300013305080,3.77396
1300013365080,3.76155
1300013425080,3.80161
1300013485080,3.77266
1300013545080,3.80739
1300013605080,3.75713
1300013665080,3.79428
1300013725080,3.83244
1300013785080,3.81059
1300013845080,3.81321
1300013905080,3.79411
1300013965080,3.77725
1300014025093,3.78351
1300014085093,3.76549
1300014145093,3.77356
1300014205093,3.80918
1300014265093,3.82036
1300014325093,3.82990
1300014385093,3.78863
1300014445093,3.82728
1300014505093,3.81142
1300014565093,3.76978
1300014625093,3.78360
1300014685093,3.84640
1300014745093,3.78116
1300014805093,3.77095
1300014865093,3.80502
1300014925093,3.78789
1300014985093,3.81903
1300015045093,3.78659
1300015105093,3.82428
1300015165093,3.80252
1300015225093,3.79787
1300015285093,3.80606
1300015345093,3.79798
1300015405093,3.79536
1300015465093,3.79557
1300015525093,3.82299
1300015585093,3.79621
1300015645093,3.79473
1300015705093,3.80532
1300015765093,3.82340
1300015825093,3.78239
1300015885093,3.77415
1300015945093,3.75128
1300016005093,3.78685
1300016065093,3.80165
1300016125093,3.78781
1300016185093,3.77585
1300016245093,3.77884
1300016305093,3.78481
1300016365093,3.78476
1300016425093,3.79226
1300016485093,3.82051
1300016545093,3.79596
1300016605093,3.80066
1300016665093,3.81193
1300016725093,3.75507
1300016785093,3.78548
1300016845093,3.76429
1300016905093,3.77147
1300016965093,3.77958
1300017025093,3.79579
1300017085093,3.79907
1300017145093,3.79632
1300017205093,3.79150
1300017265093,3.80142
1300017325093,3.75667
1300017385093,3.77786
1300017445093,3.77957
1300017505093,3.77099
1300017565093,3.77076
1300017625107,3.77461
1300017685107,3.73701
1300017745106,3.76003
1300017805107,3.79087
1300017865107,3.78267
1300017925107,3.79567
1300017985107,3.75690
1300018045107,3.77959
1300018105107,3.78589
1300018165107,3.76686
1300018225107,3.80558
1300018285107,3.78268
1300018345107,3.79801
1300018405107,3.78657
1300018465107,3.79186
1300018525107,3.81463
1300018585107,3.79453
1300018645107,3.79445
1300018705107,3.80124
1300018765107,3.82800
1300018825107,3.79393
1300018885107,3.79130
1300018945107,3.80087
1300019005107,3.79008
1300019065106,3.78216
1300019125106,3.79304
1300019185107,3.78400
1300019245107,3.78279
1300019305107,3.76324
1300019365107,3.75635
1300019425107,3.80540
1300019485107,3.75362
1300019545107,3.83280
1300019605107,3.76470
1300019665107,3.82481
1300019725107,3.77929
1300019785107,3.79728
1300019845107,3.82285
1300019905107,3.83671
1300019965107,3.89723
1300020025107,3.84713
1300020085107,3.86370
1300020145107,3.86880
1300020205107,3.83075
1300020265107,3.84275
1300020325107,3.82387
1300020385107,3.83614
1300020445106,3.82250
1300020505107,3.81006
1300020565107,3.81293
1300020625107,3.81311
1300020685107,3.83673
1300020745107,3.82645
1300020805107,3.83923
1300020865107,3.79698
1300020925107,3.81211
1300020985107,3.79377
1300021045107,3.77740
1300021105107,3.73931
1300021165107,3.76574
1300021225120,3.76690
1300021285120,3.81688
1300021345120,3.77612
1300021405120,3.78424
1300021465120,3.78204
1300021525120,3.77654
1300021585120,3.80223
1300021645120,3.83424
1300021705120,3.80797
1300021765120,3.81522
1300021825120,3.79322
1300021885120,3.77238
1300021945120,3.79953
1300022005120,3.82021
1300022065120,3.79804
1300022125120,3.77377
1300022185120,3.80341
1300022245120,3.78088
1300022305120,3.76105
1300022365120,3.83178
1300022425120,3.78339
1300022485120,3.82250
1300022545120,3.84722
1300022605120,3.77703
1300023745120,4.10219
1300023805120,4.05177
1300023865120,4.03522
1300023925120,3.99291
1300023985120,3.99802
1300024045120,3.98642
1300024105120,3.97175
1300024165120,3.94930
1300024225120,3.92981
1300024285120,3.91945
1300024345120,3.94136
1300024405120,3.91706
1300024465120,3.92010
1300024525120,3.88941
1300024585120,3.86403
1300024645120,3.87244
1300024705120,3.84737
1300024765120,3.87389
1300024825133,3.85018
1300024885133,3.89211
1300024945133,3.86493
1300025005133,3.87009
1300025065133,3.86997
1300025125133,3.90913
1300025185133,3.81539
1300025245133,3.87281
1300025305133,3.88837
1300025365133,3.86096
1300025425133,3.86252
1300025485133,3.87046
1300025545133,3.86576
1300025605133,3.82149
1300025665133,3.84279
1300025725133,3.83102
1300025785133,3.84620
1300025845133,3.84065
1300025905133,3.84605
1300025965133,3.82620
1300026025133,3.84467
1300026085133,3.82795
1300026145133,3.83690
1300026205133,3.81172
1300026265133,3.80119
1300026325133,3.81865
1300026385133,3.78928
1300026445133,3.81063
1300026505133,3.82115
1300026565133,3.81563
1300026625133,3.81128
1300026685133,3.80537
1300026745133,3.80314
1300026805133,3.79076
1300026865133,3.80736
1300026925133,3.80980
1300026985133,3.83089
1300027045133,3.84302
1300027105133,3.87795
1300027165133,3.92730
1300027225133,4.07351
1300027285133,4.30706
1300027345133,4.61975
1300027405133,4.50960
1300027465133,4.10398
1300027525133,3.98797
1300027585133,3.94557
1300027645133,3.89544
1300027705133,3.88200
1300027765133,3.84730
1300027825133,3.87406
1300027885133,3.84566
1300027945133,3.84493
1300028005133,3.84757
1300028065133,3.84853
1300028125133,3.85161
1300028185133,3.87753
1300028245133,3.82918
1300028305133,3.83551
1300028365133,3.83895
1300028425146,3.83755
1300028485146,3.84774
1300028545146,3.81748
1300028605146,3.87676
1300028665146,3.82874
1300028725146,3.84152
1300028785146,3.83154
1300028845146,3.83645
1300028905146,3.82853
1300028965146,3.81330
1300029025146,3.82543
1300029085146,3.81600
1300029145146,3.83030
1300029205146,3.78327
1300029265146,3.80796
1300029325146,3.81279
1300029385146,3.76248
1300029445146,3.80872
1300029505146,3.79611
1300029565146,3.76910
1300029625146,3.78537
1300029685146,3.79044
1300029745146,3.79271
1300029805146,3.80857
1300029865146,3.81063
1300029925146,3.80000
1300029985146,3.82471
1300030045146,3.82509
1300030105146,3.79008
1300030165146,3.82226
1300030225146,3.82373
1300030285146,3.82043
1300030345146,3.81291
1300030405146,3.82065
1300030465146,3.84618
1300030525146,3.83597
1300030585146,3.82718
1300030645146,3.77840
1300030705146,3.79949
1300030765146,3.79072
1300030825146,3.78850
1300030885146,3.80922
1300030945146,3.81663
1300031005146,3.85125
1300031065146,3.79811
1300031125146,3.76883
1300031185146,3.79802
1300031245146,3.83398
1300031305146,3.80981
1300031365146,3.82889
1300031425146,3.80842
1300031485146,3.82297
1300031545146,3.78288
1300031605146,3.82472
1300031665146,3.79740
1300031725146,3.79570
1300031785146,3.80997
1300031845146,3.81924
1300031905146,3.79581
1300031965146,3.77898
1300032025159,3.78161
1300032085159,3.76989
1300032145159,3.79138
1300032205159,3.79388
1300032265159,3.80301
1300032325159,3.80440
1300032385159,3.77177
1300032445159,3.80980
1300032505159,3.84219
1300032565159,3.84519
1300032625159,3.78349
1300032685159,3.82331
1300032745159,3.78229
1300032805159,3.78918
1300032865159,3.81547
1300032925159,3.77471
1300032985159,3.81014
1300033045159,3.80106
1300033105159,3.78543
1300033165159,3.76684
1300033225159,3.80245
1300033285159,3.82618
1300033345159,3.78794
1300033405159,3.78421
1300033465159,3.77829
1300033525159,3.80778
1300033585159,3.79416
1300033645159,3.77266
1300033705159,3.78407
1300033765159,3.77176
1300033825159,3.81305
1300033885159,3.78778
1300033945159,3.82294
1300034005159,3.77862
1300034065159,3.78905
1300034125159,3.80276
1300034185159,3.78809
1300034245159,3.76734
1300034305159,3.76733
1300034365159,3.79205
1300034425159,3.81330
1300034485159,3.82944
1300034545159,3.83103
1300034605159,3.80225
1300034665159,3.80394
1300034725159,3.77035
1300034785159,3.90326
1300034845159,3.77857
1300034905159,3.77724
1300034965159,3.79447
1300035025159,3.77715
1300035085159,3.76550
1300035145159,3.79678
1300035205159,3.81197
1300035265159,3.80114
1300035325159,3.81190
1300035385159,3.81088
1300035445159,3.79068
1300035505159,3.80317
1300035565159,3.77167
1300035625172,3.79608
1300035685172,3.79026
1300035745172,3.76749
1300035805172,3.74670
1300035865172,3.78709
1300035925172,3.79445
1300035985172,3.79979
1300036045172,3.76296
1300036105172,3.79789
1300036165172,3.81729
1300036225172,3.76608
1300036285172,3.79281
1300036345172,3.81462
1300036405172,3.76009
1300036465172,3.79025
1300036525172,3.80096
1300036585172,3.79521
1300036645172,3.81751
1300036705172,3.78711
1300036765172,3.80904
1300036825172,3.81335
1300036885172,3.80906
1300036945172,3.78369
1300037005172,3.81261
1300037065172,3.81394
1300037125172,3.81603
1300037185172,3.81188
1300037245172,3.78176
1300037305172,3.76882
1300037365172,3.82971
1300037425172,3.79254
1300037485172,3.78236
1300037545172,3.79252
1300037605172,3.81266
1300037665172,3.81046
1300037725172,3.82989
1300037785172,3.80474
1300037845172,3.83327
1300037905172,3.81764
1300037965172,3.85120
1300038025172,3.85126
1300038085172,3.84231
1300038145172,3.79569
1300038205172,3.84110
1300038265172,3.82996
1300038325172,3.84443
1300038385172,3.83571
1300038445172,3.82067
1300038505172,3.81126
1300038565172,3.83362
1300038625172,3.80234
1300038685172,3.79946
1300038745172,3.80847
1300038805172,3.82169
1300038865172,3.82277
1300038925172,3.82543
1300038985172,3.82279
1300039045172,3.80735
1300039105172,3.81918
1300039165172,3.82514
1300039225185,3.82636
1300039285185,3.82861
1300039345185,3.81909
1300039405185,3.80515
1300039465185,3.81835
1300039525185,3.83108
1300039585185,3.80720
1300039645185,3.81875
1300039705185,3.83639
1300039765185,3.82836
1300039825185,3.84607
1300039885185,3.81250
1300039945185,3.81205
1300040005185,3.81845
1300040065185,3.81178
1300040125185,3.99676
1300040185185,3.83282
1300040245185,3.82179
1300040305185,3.81666
1300040365185,3.81954
1300040425185,3.83074
1300040485185,3.77883
1300040545185,3.80948
1300040605185,3.78047
1300040665185,3.80257
1300040725185,3.80863
1300040785185,3.81346
1300040845185,3.77524
1300040905185,3.82882
1300040965185,3.79953
1300041025185,3.79793
1300041085185,3.81110
1300041145185,3.80446
1300041205185,3.79747
1300041265185,3.77922
1300041325185,3.82771
1300041385185,3.75650
1300041445185,3.76610
1300041505185,3.83941
1300041565185,3.80237
1300041625185,3.82172
1300041685185,3.78944
1300041745185,3.79057
1300041805185,3.77814
1300041865185,3.79067
1300041925185,3.78022
1300041985185,3.79178
1300042045185,3.80550
1300042105185,3.77847
1300042165185,3.81786
1300042225185,3.81924
1300042285185,3.79170
1300042345185,3.80935
1300042405185,3.79150
1300042465185,3.78741
1300042525185,3.80375
1300042585185,3.79935
1300042645185,3.79480
1300042705185,3.79323
1300042765185,3.87294
1300042825198,3.81225
1300042885198,3.78638
1300042945198,3.81028
1300043005198,3.78607
1300043065198,3.81099
1300043125198,3.79567
1300043185198,3.79351
1300043245198,3.79447
1300043305198,3.76970
1300043365198,3.75356
1300043425198,3.78518
1300043485198,3.78218
1300043545198,3.80805
1300043605198,3.79414
1300043665198,3.81614
1300043725198,3.81278
1300043785198,3.79754
1300043845198,3.80208
1300043905198,3.81758
1300043965198,3.76159
1300044025198,3.81514
1300044085198,3.78913
1300044145198,3.83731
1300044205198,3.82351
1300044265198,3.78532
1300044325198,3.77661
1300044385198,3.81251
1300044445198,4.21001
1300044505198,3.81636
1300044565198,3.82730
1300044625198,3.81742
1300044685198,3.82909
1300044745198,3.84749
1300044805198,3.82243
1300044865198,3.81612
1300044925198,3.84649
1300044985198,3.76598
1300045045198,3.83186
1300045105198,3.83011
1300045165198,3.79678
1300045225198,3.81525
1300045285198,3.81009
1300045345198,3.82519
1300045405198,3.87568
1300045465198,3.85855
1300045525198,3.84048
1300045585198,3.81619
1300045645198,3.82363
1300045705198,3.80020
1300045765198,3.85518
1300045825198,3.79746
1300045885198,3.81637
1300045945198,3.81757
1300046005198,3.79046
1300046065198,3.78539
1300046125198,3.81345
1300046185198,3.78363
1300046245198,3.86022
1300046305198,3.80700
1300046365198,3.82670
1300046425211,3.79345
1300046485211,3.83351
1300046545211,3.80349
1300046605211,3.78823
1300046665211,3.82798
1300046725211,3.76383
1300046785211,3.79348
1300046845211,3.80738
1300046905211,3.77282
1300046965211,3.81597
1300047025211,3.80612
1300047085211,3.81613
1300047145211,3.81343
1300047205211,3.78412
1300047265211,3.77963
1300047325211,3.78314
1300047385211,3.79855
1300047445211,3.76671
1300047505211,3.78982
1300047565211,3.76091
1300047625211,3.75469
1300047685211,3.76880
1300047745211,3.79443
1300047805211,3.76844
1300047865211,3.79869
1300047925211,3.75333
1300047985211,3.82223
1300048045211,3.77413
1300048105211,3.79633
1300048165211,3.76923
1300048225211,3.80559
1300048285211,3.77988
1300048345211,3.78326
1300048405211,3.75718
1300048465211,3.80755
1300048525211,3.77114
1300048585211,3.77042
1300048645211,3.79137
1300048705211,3.75068
1300048765211,3.74905
1300048825211,3.79341
1300048885211,3.77286
1300048945211,3.77705
1300049005211,3.75093
1300049065211,3.75136
1300049125211,3.80372
1300049185211,3.75948
1300049245211,3.77031
1300049305211,3.77550
1300049365211,3.78579
1300049425211,3.79719
1300049485211,3.78843
1300049545211,3.77679
1300049605211,3.75497
1300049665211,3.76981
1300049725211,3.78106
1300049785211,3.80165
1300049845211,3.78085
1300049905211,3.80948
1300049965211,3.76765
1300050025224,3.80092
1300050085224,3.75536
1300050145224,3.78705
1300050205224,3.75992
1300050265224,3.78295
1300050325224,3.79778
1300050385224,3.79374
1300050445224,3.78508
1300050505224,3.82912
1300050565224,3.79581
1300050625224,3.79867
1300050685224,3.77780
1300050745224,3.79325
1300050805224,3.83711
1300050865224,3.82615
1300050925224,3.79206
1300050985224,3.77194
1300051045224,3.81009
1300051105224,3.81148
1300051165224,3.80401
1300051225224,3.79769
1300051285224,3.79445
1300051345224,3.77681
1300051405224,3.79017
1300051465224,3.77914
1300051525224,3.79657
1300051585224,3.82119
1300051645224,3.78291
1300051705224,3.81303
1300051765224,3.76615
1300051825224,3.80347
1300051885224,3.80578
1300051945224,3.78423
1300052005224,3.80804
1300052065224,3.80182
1300052125224,3.80019
1300052185224,3.81297
1300052245224,3.79777
1300052305224,3.79234
1300052365224,3.78777